#timestamp,LO_Frequency,Hit,StdDev 
1598785215.8,286046997.2,N
1598785235.7,286046995.0,Y
1598785255.5,286046999.3,P
1598785275.3,286046998.1,N
1598785295.2,286046998.2,N
1598785315.0,286047000.3,N
1598785315.9,286047000.3,N
1598785335.8,286047000.3,N
1598785355.6,286047001.2,N
1598785375.4,286046998.6,N
1598785395.3,286046996.9,N
1598785415.1,286046996.7,N
1598785435.8,286046996.6,N
1598785455.7,286046998.9,N
1598785475.5,286046997.0,N
1598785495.4,286047000.6,N
1598785515.2,286047003.0,N
1598785535.0,286047006.7,Y
1598785535.9,286047006.7,P
1598785555.8,286047007.8,N
1598785575.6,286047006.6,N
1598785595.5,286047006.9,N
1598785615.3,286047003.2,N
1598785635.1,286047003.6,N
1598785655.9,286047004.0,N
1598785675.7,286047001.5,N
1598785695.5,286047001.5,N
1598785715.4,286047001.5,N
1598785735.2,286047001.5,N
1598785755.1,286047002.1,N
1598785756.0,286047002.1,N
1598785775.8,286047000.5,N
1598785795.6,286047002.7,N
1598785815.5,286047001.1,N
1598785835.3,286047000.3,N
1598785855.1,286047000.3,N
1598785875.9,286046998.5,N
1598785895.7,286047000.8,N
1598785915.6,286046998.1,N
1598785935.4,286046998.7,N
1598785955.2,286047001.2,N
1598785975.1,286046998.3,N
1598785976.0,286046998.3,N
1598785995.8,286046998.3,N
1598786015.7,286047000.9,N
1598786035.5,286047000.2,N
1598786055.3,286047000.6,N
1598786075.2,286046999.9,N
1598786095.9,286047011.9,Y
1598786115.7,286046999.3,P
1598786135.6,286046998.5,N
1598786155.4,286046998.2,N
1598786175.3,286047001.2,N
1598786195.1,286047000.2,N
1598786196.0,286047000.2,N
1598786215.8,286047001.0,N
1598786235.7,286046998.2,N
1598786255.5,286046998.7,N
1598786275.3,286046998.3,N
1598786295.2,286046999.2,N
1598786315.0,286046996.6,N
1598786315.9,286046996.6,N
1598786335.8,286046996.7,N
1598786355.6,286046999.6,N
1598786375.4,286046999.6,N
1598786395.3,286046999.5,N
1598786415.1,286046999.5,N
1598786435.8,286046999.4,N
1598786455.7,286046998.8,N
1598786475.5,286046998.7,N
1598786495.4,286046999.3,N
1598786515.2,286046996.7,N
1598786535.0,286046999.6,N
1598786535.9,286046999.6,N
1598786555.8,286046997.0,N
1598786575.6,286046999.6,N
1598786595.4,286046996.9,N
1598786615.3,286046996.5,N
1598786635.1,286046997.3,N
1598786655.9,286046996.7,N
1598786675.7,286046999.5,N
1598786695.5,286046997.3,N
1598786715.4,286046997.4,N
1598786735.2,286046997.8,N
1598786755.0,286046997.7,N
1598786755.9,286046997.7,N
1598786775.8,286046996.8,N
1598786795.6,286046996.8,N
1598786815.5,286046997.2,N
1598786835.3,286046996.7,N
1598786855.1,286046996.5,N
1598786875.9,286046996.7,N
1598786895.7,286046997.6,N
1598786915.5,286046995.4,Y
1598786935.4,286046997.4,P
1598786955.2,286046999.1,P
1598786975.1,286046997.7,P
1598786976.0,286046997.7,Y
1598786995.8,286046999.5,P
1598787015.6,286046999.4,N
1598787035.5,286046999.2,N
1598787055.3,286046998.2,Y
1598787075.2,286047000.5,P
1598787095.9,286047000.0,N
1598787115.7,286047001.8,N
1598787135.6,286047003.4,Y
1598787155.4,286047007.2,P
1598787175.2,286047006.4,N
1598787195.1,286047007.1,N
1598787196.0,286047007.1,N
1598787215.8,286047004.8,N
1598787235.7,286047005.2,N
1598787255.5,286047002.9,N
1598787275.3,286047004.1,N
1598787295.2,286047004.0,N
1598787315.0,286047002.3,N
1598787315.9,286047002.3,N
1598787335.7,286047002.8,N
1598787355.6,286047002.5,N
1598787375.4,286047002.3,N
1598787395.3,286047002.5,N
1598787415.1,286047002.5,N
1598787416.0,286047002.5,N
1598787435.8,286047001.3,N
1598787455.7,286047000.4,N
1598787475.5,286047000.9,N
1598787495.3,286047000.8,N
1598787515.2,286047000.1,N
1598787535.0,286047002.6,N
1598787535.9,286047002.6,N
1598787555.8,286047002.0,N
1598787575.6,286047002.4,N
1598787595.4,286047000.3,N
1598787615.3,286046998.3,N
1598787635.1,286046998.1,N
1598787655.9,286047000.3,N
1598787675.7,286047000.7,N
1598787695.5,286046999.8,N
1598787715.4,286047000.2,N
1598787735.2,286046999.7,N
1598787755.0,286047002.6,N
1598787755.9,286047002.6,N
1598787775.8,286047002.2,N
1598787795.6,286047002.8,N
1598787815.5,286047001.6,N
1598787835.3,286047002.1,N
1598787855.1,286047004.1,Y
1598787875.9,286047001.1,P
1598787895.7,286046998.8,P
1598787915.5,286046998.7,N
1598787935.4,286047000.7,N
1598787955.2,286047000.9,N
1598787975.1,286047001.7,N
1598787976.0,286047001.7,N
1598787995.8,286047004.8,Y
1598788015.6,286047003.7,P
1598788035.5,286047001.7,N
1598788055.3,286047002.1,N
1598788075.2,286047001.8,N
1598788095.9,286047001.6,N
1598788115.7,286047001.6,N
1598788135.6,286047000.3,N
1598788155.4,286047001.1,N
1598788175.2,286046999.7,N
1598788195.1,286047000.6,N
1598788196.0,286047000.6,N
1598788215.8,286047000.5,N
1598788235.7,286047000.4,N
1598788255.5,286046998.3,N
1598788275.3,286046998.7,N
1598788295.2,286046998.3,N
1598788315.0,286046997.4,N
1598788315.9,286046997.4,N
1598788335.7,286046996.8,N
1598788355.6,286046999.6,N
1598788375.4,286046997.0,N
1598788395.3,286046998.9,N
1598788415.1,286046999.5,N
1598788416.0,286046999.5,N
1598788435.8,286046997.3,N
1598788455.7,286046996.8,N
1598788475.5,286046996.8,N
1598788495.4,286046997.3,N
1598788515.2,286046997.0,N
1598788535.0,286046997.4,N
1598788535.9,286046997.4,N
1598788585.8,286046997.5,E
1598788595.7,286046999.2,N
1598788615.6,286047001.2,P
1598788635.4,286047002.4,N
1598788655.2,286047000.2,N
1598788675.1,286047000.2,N
1598788676.0,286047000.2,N
1598788695.8,286046999.8,N
1598788715.7,286047002.0,N
1598788735.5,286047002.2,N
1598788755.3,286047000.8,N
1598788775.2,286046998.6,N
1598788795.0,286047002.7,N
1598788795.9,286047002.7,N
